{"data":{"norad_id":37192,"intl_designator":"2010-054E","name":"GLOBALSTAR M075","alt_names":[],"object_type":"PAYLOAD","status":"ACTIVE","operator":null,"country":"GLOB","launch_date":"2010-10-19","launch_site_code":"TYMSC","launch_vehicle":null,"mission":null,"orbit_class":"UNKNOWN","rcs_meters":4.7436,"size_class":null,"mass_kg":null,"dimensions":null,"purposes":["comms"],"wikipedia_slug":null,"has_3d_model":false,"image_url":null,"decayed_at":null,"tle_current":{"epoch":"2026-09-19T21:36:45.124992Z","epoch_age_seconds":66163,"freshness":"FRESH","line1":"1 37192U 10054E   26262.90052228 -.00000091  00000+0  69179-4 0  9994","line2":"2 37192  51.9934 221.8121 0000536  67.2731 327.1858 12.62260558733905","mean_motion":12.62260558,"eccentricity":5.36e-5,"inclination_deg":51.9934,"raan_deg":221.8121,"arg_perigee_deg":67.2731,"mean_anomaly_deg":327.1858,"bstar":6.9179e-5,"rev_number":73390,"period_min":114.08104221221,"perigee_km":1413.2101391505,"apogee_km":1414.0454163347,"semimajor_km":7791.7647777426,"source":"CELESTRAK","updated_at":"2026-09-20T09:00:45.037630Z"}}}